Time,TemperatureF,DewpointF,PressureIn,WindDirection,WindDirectionDegrees,WindSpeedMPH,WindSpeedGustMPH,Humidity,HourlyPrecipIn,Conditions,Clouds,dailyrainin,SolarRadiationWatts/m^2,SoftwareType,DateUTC
2013-07-01 00:01:00,54.0,54.0,-100.00,NE,43,0.0,0.0,99,0.00,,,0.00,0.000000,,2013-07-01 05:01:00,
2013-07-01 00:33:00,52.0,52.0,-100.00,NE,43,0.0,0.0,100,0.00,,,0.00,0.000000,,2013-07-01 05:33:00,
2013-07-01 00:42:00,52.0,52.0,-100.00,NE,43,0.0,0.0,100,0.00,,,0.00,0.000000,,2013-07-01 05:42:00,
2013-07-01 00:52:00,52.0,52.0,-100.00,NE,43,0.0,0.0,100,0.00,,,0.00,0.000000,,2013-07-01 05:52:00,
2013-07-01 01:02:00,52.0,52.0,-100.00,NE,43,0.0,0.0,100,0.00,,,0.00,0.000000,,2013-07-01 06:02:00,
2013-07-01 07:33:00,58.0,54.0,-100.00,NE,37,3.0,6.0,86,-99.99,,,0.00,135.000000,,2013-07-01 12:33:00,
2013-07-01 07:43:00,58.0,54.0,-100.00,NE,37,3.0,6.0,86,-99.99,,,0.00,135.000000,,2013-07-01 12:43:00,
2013-07-01 07:53:00,58.0,54.0,-100.00,NE,37,3.0,6.0,86,-99.99,,,0.00,135.000000,,2013-07-01 12:53:00,
2013-07-01 08:02:00,58.0,54.0,-100.00,NE,37,3.0,6.0,86,-99.99,,,0.00,135.000000,,2013-07-01 13:02:00,
2013-07-01 08:33:00,66.0,52.0,-100.00,NE,39,4.0,7.0,60,0.00,,,-99.99,294.000000,,2013-07-01 13:33:00,
2013-07-01 08:43:00,66.0,52.0,-100.00,NE,39,4.0,7.0,60,0.00,,,-99.99,294.000000,,2013-07-01 13:43:00,
2013-07-01 08:53:00,66.0,52.0,-100.00,NE,39,4.0,7.0,60,0.00,,,-99.99,294.000000,,2013-07-01 13:53:00,
2013-07-01 09:01:00,66.0,52.0,-100.00,NE,39,4.0,7.0,60,0.00,,,-99.99,294.000000,,2013-07-01 14:01:00,
2013-07-01 09:34:00,71.0,49.0,-100.00,ENE,61,5.0,10.0,45,0.00,,,0.00,469.000000,,2013-07-01 14:34:00,
2013-07-01 09:43:00,71.0,49.0,-100.00,ENE,61,5.0,10.0,45,0.00,,,0.00,469.000000,,2013-07-01 14:43:00,
2013-07-01 09:53:00,71.0,49.0,-100.00,ENE,61,5.0,10.0,45,0.00,,,0.00,469.000000,,2013-07-01 14:53:00,
2013-07-01 10:02:00,71.0,49.0,-100.00,ENE,61,5.0,10.0,45,0.00,,,0.00,469.000000,,2013-07-01 15:02:00,
2013-07-01 10:34:00,74.0,49.0,-100.00,East,91,6.0,12.0,41,0.00,,,0.00,649.000000,,2013-07-01 15:34:00,
2013-07-01 10:43:00,74.0,49.0,-100.00,East,91,6.0,12.0,41,0.00,,,0.00,649.000000,,2013-07-01 15:43:00,
2013-07-01 10:53:00,74.0,49.0,-100.00,East,91,6.0,12.0,41,0.00,,,0.00,649.000000,,2013-07-01 15:53:00,
2013-07-01 11:01:00,74.0,49.0,-100.00,East,91,6.0,12.0,41,0.00,,,0.00,649.000000,,2013-07-01 16:01:00,
2013-07-01 11:33:00,77.0,49.0,-100.00,NE,43,5.0,13.0,38,0.00,,,0.00,772.000000,,2013-07-01 16:33:00,
2013-07-01 11:44:00,77.0,49.0,-100.00,NE,43,5.0,13.0,38,0.00,,,0.00,772.000000,,2013-07-01 16:44:00,
2013-07-01 11:53:00,77.0,49.0,-100.00,NE,43,5.0,13.0,38,0.00,,,0.00,772.000000,,2013-07-01 16:53:00,
2013-07-01 12:02:00,77.0,49.0,-100.00,NE,43,5.0,13.0,38,0.00,,,0.00,772.000000,,2013-07-01 17:02:00,
2013-07-01 12:34:00,79.0,49.0,-100.00,ENE,72,6.0,12.0,35,0.00,,,0.00,873.000000,,2013-07-01 17:34:00,
2013-07-01 12:43:00,79.0,49.0,-100.00,ENE,72,6.0,12.0,35,0.00,,,0.00,873.000000,,2013-07-01 17:43:00,
2013-07-01 12:53:00,79.0,49.0,-100.00,ENE,72,6.0,12.0,35,0.00,,,0.00,873.000000,,2013-07-01 17:53:00,
2013-07-01 13:02:00,79.0,49.0,-100.00,ENE,72,6.0,12.0,35,0.00,,,0.00,873.000000,,2013-07-01 18:02:00,
2013-07-01 13:33:00,81.0,49.0,-100.00,ENE,71,5.0,14.0,33,0.00,,,0.00,919.000000,,2013-07-01 18:33:00,
2013-07-01 13:44:00,81.0,49.0,-100.00,ENE,71,5.0,14.0,33,0.00,,,0.00,919.000000,,2013-07-01 18:44:00,
2013-07-01 13:53:00,81.0,49.0,-100.00,ENE,71,5.0,14.0,33,0.00,,,0.00,919.000000,,2013-07-01 18:53:00,
2013-07-01 14:02:00,81.0,49.0,-100.00,ENE,71,5.0,14.0,33,0.00,,,0.00,919.000000,,2013-07-01 19:02:00,
2013-07-01 14:34:00,82.0,50.0,-100.00,ENE,71,5.0,14.0,33,0.00,,,0.00,856.000000,,2013-07-01 19:34:00,
2013-07-01 14:44:00,82.0,50.0,-100.00,ENE,71,5.0,14.0,33,0.00,,,0.00,856.000000,,2013-07-01 19:44:00,
2013-07-01 14:53:00,82.0,50.0,-100.00,ENE,71,5.0,14.0,33,0.00,,,0.00,856.000000,,2013-07-01 19:53:00,
2013-07-01 15:02:00,82.0,50.0,-100.00,ENE,71,5.0,14.0,33,0.00,,,0.00,856.000000,,2013-07-01 20:02:00,
2013-07-01 15:34:00,83.0,49.0,-100.00,NE,45,5.0,14.0,31,0.00,,,0.00,838.000000,,2013-07-01 20:34:00,
2013-07-01 15:43:00,83.0,49.0,-100.00,NE,45,5.0,14.0,31,0.00,,,0.00,838.000000,,2013-07-01 20:43:00,
2013-07-01 15:52:00,83.0,49.0,-100.00,NE,45,5.0,14.0,31,0.00,,,0.00,838.000000,,2013-07-01 20:52:00,
2013-07-01 16:02:00,83.0,49.0,-100.00,NE,45,5.0,14.0,31,0.00,,,0.00,838.000000,,2013-07-01 21:02:00,
2013-07-01 16:34:00,79.0,50.0,-100.00,ENE,60,6.0,11.0,36,0.00,,,0.00,341.000000,,2013-07-01 21:34:00,
2013-07-01 16:44:00,79.0,50.0,-100.00,ENE,60,6.0,11.0,36,0.00,,,0.00,341.000000,,2013-07-01 21:44:00,
2013-07-01 16:53:00,79.0,50.0,-100.00,ENE,60,6.0,11.0,36,0.00,,,0.00,341.000000,,2013-07-01 21:53:00,
2013-07-01 17:01:00,79.0,50.0,-100.00,ENE,60,6.0,11.0,36,0.00,,,0.00,341.000000,,2013-07-01 22:01:00,
2013-07-01 17:33:00,83.0,51.0,-100.00,ESE,102,4.0,10.0,33,0.00,,,0.00,575.000000,,2013-07-01 22:33:00,
2013-07-01 17:43:00,83.0,51.0,-100.00,ESE,102,4.0,10.0,33,0.00,,,0.00,575.000000,,2013-07-01 22:43:00,
2013-07-01 17:53:00,83.0,51.0,-100.00,ESE,102,4.0,10.0,33,0.00,,,0.00,575.000000,,2013-07-01 22:53:00,
2013-07-01 18:01:00,83.0,51.0,-100.00,ESE,102,4.0,10.0,33,0.00,,,0.00,575.000000,,2013-07-01 23:01:00,
2013-07-01 18:33:00,76.0,57.0,-100.00,North,6,0.0,8.0,51,0.00,,,0.00,116.000000,,2013-07-01 23:33:00,
2013-07-01 18:44:00,76.0,57.0,-100.00,North,6,0.0,8.0,51,0.00,,,0.00,116.000000,,2013-07-01 23:44:00,
2013-07-01 18:53:00,76.0,57.0,-100.00,North,6,0.0,8.0,51,0.00,,,0.00,116.000000,,2013-07-01 23:53:00,
2013-07-01 19:01:00,76.0,57.0,-100.00,North,6,0.0,8.0,51,0.00,,,0.00,116.000000,,2013-07-02 00:01:00,
2013-07-01 20:33:00,65.0,64.0,-100.00,South,186,0.0,6.0,98,0.01,,,0.02,40.000000,,2013-07-02 01:33:00,
2013-07-01 20:43:00,65.0,64.0,-100.00,South,186,0.0,6.0,98,0.01,,,0.02,40.000000,,2013-07-02 01:43:00,
2013-07-01 20:53:00,65.0,64.0,-100.00,South,186,0.0,6.0,98,0.01,,,0.02,40.000000,,2013-07-02 01:53:00,
2013-07-01 21:02:00,65.0,64.0,-100.00,South,186,0.0,6.0,98,0.01,,,0.02,40.000000,,2013-07-02 02:02:00,
2013-07-01 21:34:00,64.0,64.0,-100.00,ENE,57,1.0,5.0,100,0.00,,,0.02,7.000000,,2013-07-02 02:34:00,
2013-07-01 21:43:00,64.0,64.0,-100.00,ENE,57,1.0,5.0,100,0.00,,,0.02,7.000000,,2013-07-02 02:43:00,
2013-07-01 21:53:00,64.0,64.0,-100.00,ENE,57,1.0,5.0,100,0.00,,,0.02,7.000000,,2013-07-02 02:53:00,
2013-07-01 22:01:00,64.0,64.0,-100.00,ENE,57,1.0,5.0,100,0.00,,,0.02,7.000000,,2013-07-02 03:01:00,
2013-07-01 22:33:00,63.0,63.0,-100.00,ENE,72,0.0,2.0,100,0.00,,,0.02,0.000000,,2013-07-02 03:33:00,
2013-07-01 22:43:00,63.0,63.0,-100.00,ENE,72,0.0,2.0,100,0.00,,,0.02,0.000000,,2013-07-02 03:43:00,
2013-07-01 22:53:00,63.0,63.0,-100.00,ENE,72,0.0,2.0,100,0.00,,,0.02,0.000000,,2013-07-02 03:53:00,
2013-07-01 23:02:00,63.0,63.0,-100.00,ENE,72,0.0,2.0,100,0.00,,,0.02,0.000000,,2013-07-02 04:02:00,
2013-07-01 23:32:00,60.0,60.0,-100.00,North,360,0.0,2.0,99,0.00,,,0.02,0.000000,,2013-07-02 04:32:00,
2013-07-01 23:42:00,60.0,60.0,-100.00,North,360,0.0,2.0,99,0.00,,,0.02,0.000000,,2013-07-02 04:42:00,
2013-07-01 23:53:00,60.0,60.0,-100.00,North,360,0.0,2.0,99,0.00,,,0.02,0.000000,,2013-07-02 04:53:00,